Theta_e
305 305 305 304 305 305 304 304 304 303 302 301 301 304 302 299 297 307 310 310 305 297 290 293 289 287 291 296 296 298 295 295 297 295 296 293 295 292 290 290 290 292 290 291 290 291 287 289 288 289 290 290 292 295 295 296 295 295 295 296 298 298 292 290 290 293 295 297 298 299 300 298 296 296 298 296 294 295 295 294 297 292 294 293 292 289 294
304 304 305 305 305 305 304 304 304 303 302 301 302 302 300 300 300 302 308 309 304 294 286 288 291 291 296 296 296 299 296 296 295 295 295 294 292 290 289 292 294 290 292 292 290 292 284 291 290 289 292 290 296 296 295 296 294 294 295 293 299 289 292 291 286 285 287 290 293 294 297 297 294 293 296 297 297 298 298 298 299 292 294 294 292 287 292
304 304 304 305 305 304 304 304 303 303 302 303 302 297 299 299 302 302 303 306 302 291 294 291 290 290 289 291 290 295 297 300 299 297 297 299 296 290 286 289 293 292 294 292 293 293 290 286 291 291 291 292 296 296 296 297 296 296 299 300 300 292 293 291 283 279 278 277 279 282 286 291 295 296 295 296 296 297 296 291 293 289 294 295 292 291 299
304 304 304 304 305 305 304 304 303 303 302 302 303 300 299 298 291 301 298 299 300 297 298 295 291 288 288 287 293 297 294 299 301 300 299 300 298 293 292 288 291 290 291 290 291 291 295 291 288 290 289 293 295 296 298 296 297 298 301 300 301 293 296 293 291 288 285 288 290 294 295 294 291 293 294 295 297 298 298 296 292 289 294 293 297 297 298
304 304 304 304 304 304 304 304 303 302 302 303 300 301 300 300 294 292 291 299 299 297 298 295 295 290 293 287 294 292 294 296 299 302 294 300 298 295 290 288 284 284 286 289 287 293 292 295 292 289 292 295 294 297 298 296 298 301 299 301 299 296 291 294 294 292 292 294 294 295 295 292 293 293 294 296 296 297 297 292 291 298 294 290 298 300 298
304 304 304 304 305 304 304 304 303 302 302 302 303 299 301 292 297 299 299 290 290 293 293 297 295 296 296 291 292 292 293 295 291 298 301 302 301 293 293 290 290 288 285 287 283 292 292 292 290 292 293 293 295 294 297 296 299 299 298 301 299 296 289 294 294 294 294 295 294 295 295 295 294 295 295 294 296 296 294 295 297 299 293 291 298 301 299
304 304 304 304 304 304 304 304 303 302 302 302 304 296 301 299 297 299 301 291 295 295 297 298 295 294 296 293 294 288 293 294 297 296 297 298 297 297 288 288 288 287 287 286 287 290 288 288 294 290 293 293 293 292 294 297 299 298 298 299 301 295 292 295 295 294 294 294 295 296 295 295 295 295 295 296 296 296 296 297 298 298 298 300 300 300 300
304 304 304 304 304 304 304 303 303 302 301 304 302 298 294 291 290 291 295 294 293 295 297 297 296 294 297 291 296 294 291 289 295 299 298 293 297 299 293 295 296 291 288 286 285 287 289 292 287 295 294 293 294 293 294 293 297 298 297 297 300 296 291 295 297 293 293 294 295 296 295 295 293 295 296 296 296 296 297 297 299 300 298 300 300 300 300
304 304 304 304 304 304 304 303 303 302 302 302 299 298 297 296 297 295 289 287 293 297 298 296 296 294 296 294 296 296 296 295 297 298 301 299 297 298 297 298 296 298 287 287 286 290 293 295 296 299 298 291 296 294 295 297 294 296 296 298 300 298 292 297 295 290 290 294 294 295 295 295 294 295 295 295 295 294 296 294 299 298 296 299 299 297 297
304 304 304 304 304 304 304 304 303 302 302 300 299 296 301 299 301 298 293 287 293 292 298 298 297 291 297 296 296 294 295 297 298 293 300 303 303 302 301 301 299 298 294 286 289 295 296 298 301 303 304 304 303 300 298 298 296 295 296 299 297 297 294 290 290 287 287 294 294 293 294 292 290 292 295 296 297 298 298 299 300 300 301 296 292 295 302
304 304 304 304 304 304 304 304 303 303 304 298 296 297 298 294 292 293 294 287 292 295 295 294 296 296 298 298 296 298 297 297 298 294 292 302 303 306 304 301 299 296 298 301 306 306 305 306 307 307 303 306 304 302 302 299 299 298 297 297 298 298 295 292 295 288 288 294 296 297 291 283 285 298 301 300 298 298 297 297 299 301 301 299 301 301 304
304 303 303 303 304 304 304 304 304 303 303 303 301 298 299 298 296 294 290 286 288 295 294 291 294 297 297 298 298 296 295 296 297 300 296 301 303 305 303 302 302 294 304 309 308 309 309 308 306 305 306 305 303 302 302 299 299 300 300 298 298 298 296 292 296 289 288 292 293 288 283 285 298 301 301 301 301 300 299 300 301 301 301 302 301 302 304
304 303 303 303 303 304 304 304 303 303 303 304 302 297 300 301 295 292 290 287 286 291 291 293 296 298 299 298 295 296 298 300 300 299 300 301 301 303 305 303 302 303 307 308 308 306 301 300 301 301 301 302 300 300 299 299 300 299 300 301 300 294 293 292 292 293 293 290 288 281 284 298 304 302 303 304 302 302 301 298 301 302 302 302 301 303 304
304 303 303 303 303 304 304 304 304 303 303 304 302 301 300 300 295 293 292 287 286 292 293 291 297 296 295 295 295 297 300 299 298 300 299 302 301 302 304 305 305 307 308 309 306 303 296 296 291 294 296 296 296 294 297 299 300 299 299 300 301 300 298 295 290 293 284 288 288 287 297 297 298 298 300 300 298 299 297 291 297 303 304 303 302 303 304
303 303 302 302 302 303 304 304 304 304 303 303 303 301 301 301 299 295 295 291 285 288 293 289 291 293 294 295 297 296 298 297 295 295 300 302 301 302 304 305 307 308 310 305 302 300 295 294 289 288 290 288 283 286 295 292 297 300 301 301 301 301 295 297 290 289 293 288 286 287 287 284 290 303 306 307 310 311 305 299 296 303 304 305 304 303 304
303 302 302 302 302 303 304 304 304 304 303 303 303 301 301 302 301 298 295 291 288 283 292 294 295 295 293 295 298 296 293 291 293 295 296 298 300 302 303 305 307 309 308 305 303 298 295 290 287 287 285 287 291 289 287 292 291 297 300 301 301 301 301 298 293 290 291 289 287 285 284 288 300 304 306 308 310 309 307 298 293 302 304 305 304 303 304
303 302 302 302 302 302 303 304 304 304 304 303 301 300 299 303 300 298 294 293 291 285 294 295 297 297 294 294 296 293 294 290 293 290 290 294 298 300 301 304 308 307 305 302 303 297 293 292 294 292 292 293 289 287 293 292 291 292 297 299 298 298 297 292 291 289 290 289 286 286 289 290 300 305 308 307 309 310 303 289 289 303 306 306 305 304 305
302 302 302 301 302 302 303 303 304 304 304 304 302 300 299 304 303 300 296 293 289 290 294 299 295 291 290 292 290 295 296 295 296 297 295 297 300 298 298 300 299 305 308 299 298 294 292 292 287 288 287 295 296 295 286 292 288 288 290 292 292 291 291 292 288 291 290 288 288 289 290 298 305 305 307 308 310 305 290 286 296 311 314 310 307 306 307
302 302 301 301 302 302 303 303 304 304 304 304 304 302 302 303 303 301 297 293 292 288 295 298 298 295 297 298 296 296 296 296 295 291 292 294 297 298 298 299 302 295 302 297 299 293 292 291 297 293 289 293 297 288 296 290 289 294 293 290 291 291 291 291 292 290 290 290 288 288 290 300 307 308 308 308 303 291 290 304 315 315 313 316 314 308 308
302 301 300 301 301 302 303 303 303 303 303 304 303 300 300 303 304 302 295 291 292 290 294 295 296 294 297 294 292 292 294 295 296 294 294 291 299 299 297 293 299 300 297 299 292 297 293 290 293 297 292 294 296 299 293 294 297 295 293 295 291 292 289 289 289 291 293 291 288 287 284 296 310 310 305 308 297 299 308 313 314 315 316 314 315 316 316
301 300 300 301 301 302 302 303 303 303 304 303 303 301 298 304 305 303 301 296 291 287 291 299 299 297 297 296 297 296 294 292 294 293 295 295 299 296 288 287 293 295 291 294 289 291 292 291 295 294 297 295 298 297 291 291 294 300 298 297 296 298 290 290 292 296 289 288 285 287 296 304 311 310 297 308 312 315 316 315 312 314 315 315 313 318 318
301 300 300 301 302 302 302 303 303 303 304 303 303 302 298 303 305 304 302 301 293 289 292 298 299 298 299 300 300 300 299 298 299 299 295 293 299 297 296 297 295 296 299 300 295 293 297 296 298 294 293 295 300 293 296 291 290 298 303 300 290 299 295 296 290 299 293 292 295 303 306 308 311 312 312 314 316 318 317 315 314 313 315 317 316 320 323
301 300 300 300 301 302 302 302 303 303 303 303 303 301 297 300 302 306 304 295 297 297 299 298 299 300 301 302 303 304 304 304 303 302 301 296 293 298 298 298 299 303 303 304 295 295 295 295 291 298 295 297 292 293 297 296 291 296 293 300 301 302 304 306 300 299 304 304 304 306 305 309 310 312 315 314 315 317 317 315 313 314 316 318 318 319 320
300 300 300 300 301 301 301 302 303 303 303 303 303 302 300 301 302 302 300 298 294 290 294 299 297 294 298 298 302 306 305 303 303 304 306 303 293 294 302 303 305 304 303 305 304 297 297 297 297 299 292 298 299 295 292 290 291 297 299 296 300 303 304 301 296 303 297 291 304 305 306 310 312 312 315 317 317 316 319 316 316 317 318 318 319 320 322
300 300 300 301 300 300 301 301 302 302 303 303 304 304 303 301 303 302 297 289 290 289 284 289 292 299 303 304 304 303 304 306 307 306 304 304 301 297 297 304 307 302 300 304 305 301 298 294 296 297 291 300 301 292 299 293 293 301 294 297 299 299 305 300 299 300 295 295 304 308 309 310 312 312 313 314 314 317 320 320 319 318 318 318 318 319 319
300 300 300 300 300 300 300 301 301 302 303 304 304 302 300 300 304 304 301 298 297 293 285 286 293 302 304 301 299 302 305 306 306 306 305 304 304 304 303 304 304 307 305 304 303 298 296 295 296 296 296 294 304 295 294 299 299 303 297 298 305 304 304 295 301 298 301 303 304 306 310 310 312 312 314 316 316 316 319 321 321 317 316 317 318 319 320
300 300 300 300 300 300 300 300 301 302 303 303 304 304 302 302 304 301 298 296 291 287 290 289 294 298 300 297 301 304 304 305 306 305 305 305 304 304 304 303 301 303 302 302 303 299 298 296 294 293 299 299 302 302 303 302 302 296 297 304 308 304 300 304 303 295 295 297 302 307 298 297 308 312 314 315 316 318 317 318 318 319 317 317 316 317 318
299 299 299 300 300 301 301 301 301 302 302 302 303 303 304 302 303 304 303 300 294 287 288 288 290 295 300 298 305 305 303 304 305 305 304 304 305 304 304 303 303 302 302 300 296 297 297 295 295 297 298 303 301 298 307 305 304 300 301 301 305 302 302 301 297 296 295 305 308 310 309 309 310 314 314 316 317 317 316 316 315 318 320 319 318 316 316
299 299 300 300 301 302 302 302 302 302 302 302 303 302 302 304 306 306 304 305 301 294 291 291 295 294 291 298 302 301 304 305 305 304 304 303 304 305 304 304 303 303 304 302 299 298 297 296 297 297 298 306 300 296 300 293 294 293 300 301 305 308 309 306 305 306 308 310 312 312 310 307 311 314 314 315 318 316 314 314 318 318 317 318 319 318 317
299 299 300 301 301 302 302 302 302 302 303 302 301 299 295 298 304 304 305 304 302 298 289 287 285 290 301 300 301 302 302 304 304 304 303 303 303 304 304 305 304 305 304 300 299 296 298 298 297 304 306 311 302 298 294 296 294 297 304 306 307 308 307 309 310 307 306 313 312 312 312 312 314 315 316 315 315 315 314 314 316 316 316 318 318 318 319
299 300 300 300 300 301 301 302 302 302 302 301 298 292 291 289 298 304 303 305 303 297 291 290 287 293 293 302 303 301 302 302 303 303 304 304 305 305 306 306 306 306 299 300 299 299 299 297 296 300 306 307 301 296 296 296 293 296 303 305 307 307 308 309 311 312 311 310 311 312 312 311 313 311 311 312 314 314 314 315 314 314 318 316 318 319 319
300 300 300 300 300 300 301 301 302 302 301 299 296 296 297 298 301 303 303 303 303 296 289 285 287 290 291 295 302 304 303 302 302 303 304 306 304 306 306 305 304 307 302 300 300 299 298 299 297 301 300 307 300 297 298 296 292 297 302 305 307 308 309 310 311 312 312 313 312 308 310 310 311 309 309 313 315 316 315 315 314 318 314 316 317 318 319
300 300 300 300 300 300 301 301 302 301 301 302 302 301 300 301 301 303 302 303 299 294 294 288 285 288 288 295 301 304 303 302 303 304 301 307 304 307 303 307 306 306 308 301 297 296 301 298 297 298 303 307 295 294 297 295 298 302 303 304 306 308 309 310 312 313 313 313 313 306 305 308 311 313 314 313 313 313 315 314 313 314 315 315 315 316 316
300 300 300 300 301 301 301 301 301 300 300 298 297 299 304 302 302 300 302 302 296 295 293 287 284 286 288 299 296 302 302 298 299 302 295 306 306 304 300 304 305 298 304 300 300 299 300 297 296 296 302 296 300 295 291 297 302 302 303 304 307 307 310 311 311 312 312 313 313 313 311 312 314 313 313 312 311 312 313 315 314 313 312 313 313 314 315
300 300 300 301 301 301 301 301 301 301 299 299 300 305 303 299 301 303 301 300 290 288 288 288 289 286 287 290 289 297 302 300 298 300 295 299 306 300 301 297 298 295 298 307 299 298 296 296 302 295 293 301 295 291 293 298 300 302 305 304 306 307 307 307 310 311 312 313 312 313 314 313 311 309 309 309 310 312 313 312 312 311 311 311 312 313 314
300 300 300 301 301 302 302 301 301 300 298 298 300 300 299 300 301 304 303 302 296 290 288 289 290 287 289 285 287 294 303 298 302 301 301 300 299 304 301 298 293 298 306 299 295 300 294 302 297 292 296 293 291 294 297 300 301 301 303 304 305 305 306 307 311 312 312 312 313 313 313 312 311 310 311 311 312 312 312 311 310 311 310 311 311 312 314
299 300 301 301 303 302 299 297 301 303 301 302 300 299 298 301 303 302 301 299 300 300 291 289 287 289 292 290 293 295 299 291 298 296 299 295 293 297 297 295 292 296 297 295 295 294 298 305 296 291 291 290 293 299 300 302 302 302 303 304 305 306 306 309 310 311 309 309 310 311 311 309 308 310 311 310 310 310 309 308 308 308 307 307 308 309 311
300 301 302 301 300 294 293 295 301 301 298 299 300 299 300 297 292 293 292 290 295 296 292 293 288 292 297 293 288 300 298 294 299 293 294 297 293 293 296 293 294 294 289 292 296 303 298 295 293 292 291 299 301 301 302 303 303 304 305 306 306 306 308 311 310 308 307 306 306 306 306 307 307 308 308 308 308 308 309 308 308 308 309 308 308 308 309
299 302 302 301 297 293 293 300 304 299 301 302 301 294 292 295 291 288 289 291 291 289 293 292 290 295 294 293 294 302 297 293 292 295 290 298 292 289 294 289 294 293 291 290 294 301 291 292 293 292 292 297 298 302 303 306 305 307 309 311 311 310 311 311 311 310 308 306 307 308 308 306 305 305 307 306 307 308 308 308 309 309 309 309 310 309 311
302 297 294 294 294 296 302 304 301 302 301 294 296 293 288 293 288 286 294 288 289 292 293 289 296 296 297 293 292 293 303 297 291 290 292 294 302 291 294 293 294 291 287 287 291 300 291 287 291 291 291 296 298 303 303 303 304 307 311 312 312 312 314 313 312 314 311 311 311 311 311 311 310 308 308 308 306 306 307 308 310 310 310 309 307 310 310
300 298 297 293 298 300 301 303 304 301 295 292 291 291 289 287 291 292 290 287 288 290 296 295 297 295 297 298 297 292 300 303 301 300 296 291 299 297 291 287 294 289 288 288 293 294 292 289 290 289 290 297 300 302 304 305 305 307 310 311 310 311 313 312 312 312 311 311 310 310 310 310 310 310 310 308 308 307 308 309 309 310 311 311 310 310 312
299 298 298 300 300 301 301 300 297 293 292 294 287 283 288 288 291 290 290 284 287 291 294 296 291 293 292 295 295 297 296 303 300 296 293 289 294 292 290 292 292 288 285 291 298 293 291 287 287 289 297 301 303 304 305 305 306 306 309 311 311 310 312 311 309 310 310 310 309 309 309 310 309 310 310 309 309 310 310 310 310 311 310 310 311 312 312
301 301 301 298 297 295 295 290 293 291 284 284 285 281 286 283 286 286 288 291 296 293 293 299 297 299 299 301 297 300 296 302 295 293 292 290 295 294 290 289 289 285 289 296 292 289 287 287 287 291 298 302 303 305 305 306 307 308 307 310 313 313 313 311 309 309 311 311 310 309 310 310 310 312 311 310 310 310 310 311 310 310 309 310 310 311 312
300 299 295 293 290 291 292 281 293 288 285 286 283 278 282 282 286 288 286 289 292 291 294 291 293 293 289 296 294 294 296 298 296 295 293 295 292 289 288 286 287 293 296 291 289 286 288 290 292 297 299 301 303 304 306 305 307 307 308 307 310 312 312 312 312 310 310 311 311 311 310 310 310 309 310 310 309 309 309 310 310 310 310 310 310 310 310
293 291 291 289 286 290 287 279 292 287 280 284 286 286 287 284 287 289 288 292 293 291 294 294 294 293 291 296 296 295 294 291 297 291 288 291 288 290 287 286 291 292 289 286 287 288 289 288 296 299 298 300 301 303 305 306 306 306 307 309 308 309 310 309 309 309 308 309 310 309 309 309 308 308 309 309 309 310 309 309 310 309 310 310 310 309 310
290 288 288 283 280 286 286 282 285 282 288 289 288 290 290 291 291 290 295 296 294 294 292 293 293 293 291 295 290 290 294 294 291 290 292 292 287 285 291 295 293 287 286 288 285 284 286 293 296 297 299 301 302 304 304 306 306 307 305 307 309 309 309 310 309 309 308 309 309 308 308 307 307 308 308 309 309 309 309 311 311 310 311 309 309 309 310
290 291 290 288 282 286 289 283 284 288 290 291 293 293 292 292 293 294 295 295 293 295 294 295 295 295 291 291 292 292 293 293 288 291 293 286 286 290 295 289 284 286 283 283 284 286 290 295 297 299 299 300 301 302 304 305 307 306 307 307 308 309 309 308 308 307 308 308 308 307 307 307 307 308 308 308 309 310 309 310 311 310 309 309 309 309 309
285 291 289 280 280 286 284 287 294 293 293 293 293 294 294 295 292 292 295 295 295 295 293 293 291 293 291 296 294 289 291 292 288 290 292 289 291 287 287 286 286 287 288 286 285 292 293 296 298 298 300 300 301 302 303 304 305 306 306 307 306 306 308 306 306 307 307 308 308 308 307 307 307 307 307 307 307 308 310 311 310 310 310 310 310 309 308
291 289 285 285 287 287 287 291 291 289 291 293 293 293 293 292 291 292 294 295 294 293 295 293 291 291 287 291 290 289 287 291 285 286 290 288 284 282 283 282 283 283 287 288 289 291 294 296 298 299 300 299 300 300 302 303 304 304 306 306 306 307 307 308 309 309 309 309 308 306 306 306 306 306 306 306 305 306 307 309 310 310 309 308 307 306 306
288 288 290 287 286 289 291 291 289 287 291 291 291 291 292 291 291 292 295 293 294 294 295 294 294 290 289 289 285 287 287 290 288 289 287 284 284 286 286 281 284 284 286 290 291 294 296 297 298 298 298 298 297 298 298 300 300 303 305 307 307 306 307 309 309 308 309 308 308 308 306 305 305 305 306 305 305 305 306 307 308 307 309 308 307 306 305
292 289 288 293 287 287 289 284 285 285 287 289 290 290 291 290 291 291 295 293 293 292 290 288 289 288 287 286 285 282 285 290 287 286 285 284 288 286 284 283 285 288 291 294 295 296 296 297 296 296 297 297 297 297 297 298 300 301 303 305 306 307 306 308 309 309 308 309 309 301 307 307 307 307 306 307 306 306 304 303 305 308 307 307 306 306 306
288 285 286 290 293 291 290 291 290 289 290 291 291 292 293 290 293 293 295 293 292 288 287 290 288 286 284 282 285 288 290 288 285 286 284 287 288 285 285 288 290 292 292 293 295 296 296 296 295 295 295 294 294 296 296 296 297 298 299 301 303 303 303 304 305 307 309 309 308 308 308 308 308 308 307 306 306 305 304 304 303 305 306 308 307 308 307
Wind_Speed
17 18 19 19 19 20 21 20 20 20 21 11 8 8 6 5 4 7 8 8 9 6 5 6 5 5 7 10 13 14 12 12 12 13 10 8 5 5 6 8 10 10 8 9 10 7 6 9 5 5 13 11 13 10 20 17 17 17 11 15 10 10 9 9 8 9 12 16 19 19 18 18 19 19 18 18 19 18 15 14 11 12 13 13 11 9 6
18 19 19 20 20 19 20 20 20 19 17 12 10 7 5 5 3 5 6 8 7 6 5 4 4 5 8 11 15 13 12 13 12 12 11 7 4 6 4 5 10 11 10 11 12 7 5 3 5 6 9 7 15 16 20 20 14 17 10 10 11 8 8 8 9 8 11 14 16 17 17 16 14 13 14 14 16 21 18 15 12 11 13 12 10 11 8
17 19 19 19 20 20 20 19 19 19 17 13 7 5 7 6 5 3 7 6 7 6 4 6 8 7 10 13 17 14 9 5 8 12 13 9 8 5 4 7 8 9 10 12 12 13 13 6 7 8 8 7 13 19 19 20 16 17 11 10 8 8 7 7 9 12 12 13 15 16 16 16 13 16 19 21 24 27 20 14 11 11 11 19 11 6 6
16 18 18 19 20 19 17 17 18 19 19 16 7 6 6 4 4 6 6 6 8 9 8 8 7 8 7 10 10 13 13 11 11 10 11 11 3 8 4 2 4 10 11 11 11 11 10 10 3 3 7 9 10 14 18 18 15 18 11 11 9 6 7 10 7 10 12 13 14 16 18 16 17 20 23 21 20 18 17 12 12 13 12 14 14 11 9
16 17 18 17 20 20 17 16 18 21 21 16 8 6 5 6 5 4 3 4 10 8 4 6 7 5 6 6 7 14 15 14 11 7 10 3 7 7 8 3 3 4 5 8 6 11 10 8 9 7 13 9 12 18 17 18 19 11 8 13 7 7 7 11 11 13 12 10 15 18 19 18 19 20 22 22 20 18 18 15 15 15 12 12 13 16 10
15 16 17 17 19 19 17 17 18 21 22 21 10 8 4 4 4 4 5 3 5 6 1 3 9 11 9 7 4 9 15 16 13 11 9 14 5 2 7 9 11 7 7 3 4 6 7 6 4 0 9 7 16 15 17 16 14 12 11 10 8 5 6 9 13 10 12 11 13 18 19 19 19 21 22 23 22 22 21 20 21 18 14 10 11 13 15
15 15 16 17 18 17 17 18 18 22 24 21 9 7 5 4 7 2 5 5 7 8 11 11 9 12 12 6 7 7 11 17 15 12 15 11 6 5 4 6 14 12 6 4 4 7 6 1 4 2 7 9 14 12 16 15 18 16 11 11 6 4 8 8 10 10 11 12 15 17 19 19 20 20 20 20 23 24 24 20 21 22 15 14 11 13 17
15 16 16 17 18 17 17 18 16 20 26 20 3 7 6 6 5 3 10 9 13 13 9 8 9 10 6 6 9 10 8 12 16 14 13 12 10 2 6 17 7 13 9 7 4 4 4 6 4 3 10 8 9 11 11 12 15 14 12 9 10 7 3 2 10 10 10 12 13 12 16 17 18 20 21 22 22 21 21 20 19 18 19 16 14 11 11
15 16 16 17 17 17 16 17 16 18 21 8 7 5 5 4 3 5 8 12 7 7 7 8 7 8 7 8 10 11 15 16 17 17 15 12 13 14 13 14 11 6 13 11 15 13 9 11 12 11 8 4 10 8 10 14 13 16 11 10 8 10 2 7 6 4 7 10 11 10 11 15 17 19 21 22 23 21 18 16 17 18 18 18 16 16 12
14 15 16 16 16 16 15 15 14 15 17 7 7 7 6 5 4 4 6 7 8 9 8 8 7 5 6 8 12 11 16 17 18 14 9 12 15 14 16 15 13 7 7 13 17 18 17 17 14 11 9 10 5 4 10 12 12 12 11 9 9 8 6 4 5 5 5 10 12 9 10 11 13 17 20 22 20 18 18 18 18 18 15 14 13 14 10
13 13 15 15 16 16 15 14 13 13 12 8 7 7 8 7 7 7 5 9 10 8 9 7 8 6 8 10 14 14 15 17 15 14 11 15 14 15 14 15 12 11 11 13 11 8 10 12 11 10 13 12 8 7 5 11 13 12 10 8 6 7 6 5 3 4 5 7 8 8 8 11 14 12 15 16 17 18 19 17 19 18 16 13 12 12 12
12 13 14 15 15 15 14 12 12 11 11 8 6 6 6 6 5 5 6 8 9 11 9 7 9 10 12 13 13 15 17 17 18 14 16 13 14 13 14 14 12 9 14 12 9 2 12 4 10 13 12 10 10 11 10 6 8 12 11 8 7 6 8 3 5 5 4 4 10 8 13 13 8 9 14 16 17 17 17 16 17 17 17 17 15 13 12
12 12 13 14 14 15 14 12 11 9 8 8 6 6 6 6 5 5 6 7 9 10 11 12 15 13 10 14 16 16 16 17 13 15 13 13 13 12 12 13 13 16 18 14 12 9 7 3 5 7 9 9 11 12 11 11 10 13 11 9 7 3 3 4 4 3 5 5 5 8 10 1 3 4 6 12 16 15 14 16 16 16 17 17 17 16 14
12 11 13 14 14 14 14 12 11 10 6 9 7 6 6 6 6 6 5 6 10 10 12 14 11 12 17 17 16 17 16 13 14 13 12 12 12 13 14 12 16 16 14 12 10 6 6 3 3 6 8 7 10 10 13 14 11 12 11 10 6 4 5 3 3 4 4 4 3 7 2 5 6 5 8 8 12 14 13 10 13 15 14 16 15 16 16
11 11 12 14 13 13 14 13 11 11 8 7 8 6 5 5 5 5 5 5 10 15 13 5 13 16 16 15 13 12 11 12 13 11 15 11 10 12 14 17 16 15 14 10 4 3 3 6 2 5 7 8 7 7 11 11 11 12 7 8 6 6 7 2 1 3 5 3 3 5 4 7 6 3 3 4 4 5 10 10 10 14 17 17 17 17 18
11 12 13 13 13 12 14 13 11 10 10 8 8 6 5 3 4 6 6 7 8 9 3 13 16 15 13 12 12 12 9 10 11 12 11 10 12 15 15 17 15 14 12 9 6 1 6 2 3 3 6 7 8 8 8 10 10 12 10 8 8 8 7 8 5 6 6 5 4 3 5 1 5 4 1 1 3 4 3 9 11 10 14 17 17 18 17
12 13 14 14 13 12 13 14 12 11 11 7 8 7 6 2 4 5 7 6 6 13 16 19 13 12 12 9 9 9 10 9 11 9 10 12 14 14 16 16 15 14 13 12 7 1 3 4 2 4 5 8 9 5 9 7 8 9 10 10 7 5 2 3 7 6 7 5 6 3 3 2 2 5 0 2 4 3 6 9 6 4 11 14 15 17 15
12 13 14 14 14 13 13 14 13 11 10 7 8 8 8 6 3 5 7 8 10 13 11 8 10 11 10 10 12 11 10 9 9 9 9 12 10 13 16 13 16 17 15 7 7 6 5 5 4 3 3 6 8 10 8 9 9 8 11 10 7 4 2 4 7 6 6 6 4 2 5 1 4 6 2 4 4 8 8 7 1 9 11 8 15 15 14
12 14 14 14 13 14 14 14 14 12 10 10 9 9 6 2 5 5 7 9 9 12 12 16 15 14 14 13 12 11 10 11 10 9 8 8 9 16 19 2 4 9 13 8 7 4 4 3 4 3 3 6 8 7 8 9 8 10 12 11 9 5 3 5 6 6 6 4 8 0 3 4 5 7 1 6 8 7 6 4 6 6 8 5 3 12 15
12 14 15 14 13 13 14 14 14 13 11 10 9 8 9 8 5 6 6 8 9 14 16 17 15 15 9 11 11 10 10 9 8 8 8 8 11 16 11 1 5 9 10 11 6 7 5 6 6 1 0 3 2 2 7 10 9 9 10 11 6 2 4 4 2 3 6 5 5 1 2 2 7 6 4 4 3 3 5 7 7 9 5 5 3 3 4
13 14 15 14 13 13 13 14 14 13 12 11 9 9 10 5 3 6 8 8 9 13 12 6 8 15 16 17 16 16 14 13 11 9 9 9 10 9 8 6 9 7 6 7 8 8 5 7 8 3 4 2 4 4 3 5 10 12 9 5 3 3 2 3 3 4 4 2 2 1 1 4 6 9 2 4 5 4 2 4 5 6 8 6 3 4 2
13 12 15 15 14 14 13 14 14 14 13 11 11 10 10 7 4 5 7 7 10 12 15 20 19 20 21 19 18 16 16 15 14 10 10 8 7 8 8 8 6 2 3 4 6 4 7 6 6 6 8 5 7 1 7 3 4 7 5 10 5 8 5 5 3 3 3 3 3 2 2 4 4 3 6 4 1 1 3 5 4 5 6 5 4 5 4
15 14 14 14 14 13 12 14 14 13 13 11 10 8 9 9 8 6 6 9 10 12 15 17 16 17 18 20 19 16 14 13 13 11 9 8 8 7 8 6 5 1 4 3 4 5 8 9 6 7 7 3 4 6 4 6 4 6 7 5 3 8 3 5 7 4 2 7 7 7 4 1 2 4 1 3 1 1 3 5 6 9 8 7 7 7 6
15 15 14 14 14 14 13 14 15 14 13 12 10 9 9 9 9 8 8 8 9 13 13 9 8 5 6 8 2 9 12 13 13 12 8 8 7 7 7 2 4 2 3 4 2 1 5 5 7 7 7 6 9 6 5 2 0 6 6 6 6 6 6 5 6 2 3 3 1 3 5 6 3 4 3 4 3 2 1 5 7 8 8 9 9 8 9
14 14 13 13 14 14 14 14 15 14 11 12 13 10 10 10 8 6 7 7 6 8 10 11 13 15 13 10 10 12 10 10 11 12 11 11 12 9 8 5 4 6 8 7 3 6 4 6 7 6 8 5 7 4 4 3 1 2 4 4 6 8 9 7 8 7 6 3 3 2 2 8 8 5 1 2 1 2 4 4 5 7 8 9 10 10 11
14 14 14 14 13 14 14 14 14 14 11 11 12 10 10 10 9 8 8 8 8 6 9 10 10 11 11 14 14 13 12 11 9 12 14 14 14 14 13 11 11 7 8 6 6 6 5 6 6 6 7 4 7 7 2 3 4 2 1 7 6 5 2 5 6 8 8 8 7 6 2 3 4 4 5 6 4 3 3 2 2 6 9 10 11 11 11
14 14 14 14 14 13 13 14 15 13 11 12 11 10 10 10 9 8 7 6 7 7 7 10 11 13 12 20 17 11 9 8 9 10 13 15 16 14 13 12 11 8 8 8 7 5 4 6 5 8 7 6 7 9 6 5 4 4 4 3 3 6 6 4 5 5 5 2 3 3 2 1 4 4 3 3 6 8 3 4 3 4 6 8 10 11 11
14 14 15 14 14 14 13 13 13 12 13 14 12 11 10 10 9 8 8 7 8 8 11 13 12 15 19 21 12 8 8 9 9 10 11 12 15 14 13 12 10 8 7 6 5 4 5 6 7 4 5 7 8 4 4 6 8 7 5 4 9 2 3 2 3 5 1 8 3 3 4 2 4 3 3 4 6 7 7 4 3 4 4 5 7 9 11
15 14 14 15 16 16 16 14 13 11 11 14 11 11 11 12 9 3 3 4 5 8 9 12 15 14 8 10 15 11 7 5 7 9 10 11 13 13 14 13 11 9 8 7 6 6 7 7 5 7 6 7 5 6 5 3 3 4 4 2 11 3 4 6 9 9 8 8 6 1 3 4 4 3 5 7 5 5 3 5 5 5 5 5 5 6 9
15 15 15 16 16 16 15 13 13 12 10 9 8 8 7 2 6 1 3 3 4 4 6 8 10 5 10 9 9 9 10 9 9 10 12 12 12 11 11 11 11 9 8 6 4 6 5 6 5 8 8 2 6 5 6 4 3 7 5 5 6 1 2 5 5 7 5 6 5 6 6 5 5 4 5 8 14 14 10 6 7 6 5 5 5 6 8
16 16 16 17 17 16 15 15 13 11 10 9 7 5 4 3 5 2 3 3 2 4 5 5 11 11 11 9 10 10 11 10 8 9 10 11 10 11 10 9 9 8 6 6 6 7 5 7 5 7 5 1 3 5 8 6 4 2 7 7 6 3 2 1 4 4 5 5 6 9 4 3 4 1 3 6 7 9 11 11 8 6 4 4 4 8 8
16 17 17 17 18 17 16 16 15 12 9 8 8 6 6 5 4 4 2 4 2 4 3 7 8 5 5 6 5 8 9 10 10 8 8 7 7 6 8 9 8 8 7 5 5 5 7 5 6 8 9 4 3 6 8 7 7 1 5 15 7 2 5 4 2 4 1 3 5 8 5 6 4 4 2 4 2 2 7 5 4 3 5 3 5 7 8
16 16 17 17 18 18 17 17 16 12 10 11 16 13 4 5 4 1 1 2 3 4 3 4 6 6 6 7 11 7 6 8 7 5 5 4 5 3 6 6 6 6 6 5 4 3 4 4 3 7 5 2 3 4 7 7 6 4 6 13 8 3 3 1 2 1 1 4 6 6 5 3 3 3 5 7 7 8 9 2 1 1 1 4 6 6 5
17 18 18 18 18 19 19 18 15 10 9 7 7 6 2 9 8 8 3 2 3 4 2 3 4 7 9 9 10 5 9 7 8 2 4 3 2 5 5 6 6 4 6 7 4 5 5 4 5 6 5 4 4 3 5 8 9 5 8 13 5 3 0 1 0 2 2 3 5 11 7 2 0 1 1 2 1 5 12 9 4 2 2 2 4 4 3
17 19 18 19 19 18 19 17 6 7 4 4 2 4 4 7 11 2 7 4 3 1 2 3 3 7 8 5 5 5 8 8 7 5 6 4 2 7 5 6 3 4 4 7 5 6 5 5 6 4 6 3 2 4 4 9 10 7 9 8 4 4 5 4 1 1 0 1 4 9 10 11 8 4 3 4 4 8 10 5 2 1 1 3 4 5 5
18 20 21 19 20 16 8 5 7 7 5 3 3 5 4 3 4 4 5 5 5 5 4 3 3 6 6 8 8 4 7 9 6 7 6 4 6 6 6 5 6 6 2 3 5 5 5 1 2 6 4 4 5 5 7 7 8 8 8 8 6 7 6 7 2 2 2 0 2 6 6 6 6 3 6 7 8 7 3 1 2 2 3 3 4 4 5
20 21 21 21 11 5 6 3 2 4 3 5 3 3 3 4 6 6 5 5 5 6 6 4 7 8 6 6 3 3 7 7 6 6 6 4 4 3 5 4 7 1 3 5 5 6 3 1 3 5 5 6 6 5 8 7 8 7 7 8 7 7 7 4 1 2 3 2 2 3 4 5 6 3 9 6 4 3 3 2 4 4 5 5 5 5 5
20 21 11 7 5 4 4 2 2 3 3 5 4 5 5 5 3 2 1 2 3 4 4 5 7 8 6 6 6 7 8 7 8 6 5 2 3 4 3 4 4 1 5 5 3 2 2 2 5 6 6 8 8 8 5 5 7 6 7 7 7 7 4 1 2 3 2 2 3 4 4 3 3 3 2 2 1 2 3 2 1 2 2 4 4 4 4
16 10 7 4 4 3 2 4 4 5 4 4 5 3 3 3 2 2 3 3 2 5 5 7 8 7 7 7 8 5 6 6 7 6 5 5 3 4 2 5 0 2 5 6 3 3 6 5 4 5 6 9 7 5 2 2 4 3 4 4 5 6 3 2 3 4 2 2 4 3 3 2 1 2 2 4 2 2 2 2 0 1 2 3 4 5 5
6 6 3 3 4 3 5 7 12 3 4 2 2 3 3 3 3 3 3 3 5 4 3 5 7 7 6 7 7 7 4 6 6 6 6 7 3 5 2 4 3 2 5 6 2 3 4 4 3 4 5 1 5 6 4 3 4 4 4 4 4 3 3 1 4 7 3 4 3 3 2 3 2 3 8 10 3 2 3 2 1 2 2 5 5 5 6
5 5 5 3 6 6 6 6 6 4 2 3 3 2 2 4 5 2 2 4 5 0 4 6 4 6 4 5 6 7 3 3 5 5 5 7 2 4 3 5 2 3 4 6 1 1 3 4 4 5 1 5 3 4 3 3 3 3 3 4 2 3 4 5 6 5 2 2 1 1 2 4 4 6 7 8 8 5 2 1 0 2 2 2 4 5 4
5 5 6 9 9 9 7 6 3 2 2 3 2 4 3 3 2 2 2 4 1 1 2 2 5 5 7 7 7 6 6 2 5 3 2 5 2 3 3 4 3 4 5 3 2 4 3 5 5 5 4 4 5 4 5 4 4 5 5 4 1 4 5 5 6 7 5 2 3 4 6 5 7 8 9 9 6 4 2 2 2 3 3 4 3 3 4
15 11 8 6 4 3 2 3 3 2 2 2 2 3 2 3 4 4 2 3 1 3 1 1 5 5 6 4 7 4 5 5 4 2 4 5 3 3 4 4 3 6 4 4 3 3 5 5 5 3 4 6 6 7 5 5 5 5 4 3 1 3 4 5 4 5 5 5 7 7 7 6 6 3 3 2 3 2 1 1 3 3 3 3 3 3 4
7 5 4 2 3 3 2 4 2 1 3 2 3 4 4 4 5 2 3 1 2 3 3 6 7 8 7 5 7 5 4 4 2 2 3 3 2 3 2 4 5 4 4 4 4 7 6 3 5 7 8 8 6 7 7 6 6 5 4 3 1 1 5 5 5 5 4 4 4 4 4 4 4 3 2 1 2 3 2 2 3 4 4 4 4 4 4
4 3 2 2 2 2 1 2 3 2 4 4 4 5 3 5 3 4 2 3 3 7 7 7 7 8 9 8 6 5 2 4 1 3 3 2 3 3 3 4 4 4 4 6 5 4 6 2 5 4 10 10 10 9 8 7 6 5 5 3 1 2 3 4 4 4 4 4 4 4 3 2 2 2 2 2 2 2 3 3 5 5 4 3 2 2 2
2 2 2 3 3 3 3 4 1 3 4 2 3 5 6 5 5 5 3 4 6 5 6 7 8 8 10 6 5 5 3 4 4 4 3 2 3 4 2 3 3 5 4 6 6 8 1 5 5 8 9 11 11 11 9 8 7 6 5 5 2 1 3 1 2 2 3 2 2 3 2 2 3 2 2 1 1 1 2 3 4 3 2 2 3 2 2
3 2 2 2 4 4 2 4 5 3 3 5 5 4 4 5 5 6 6 5 6 6 7 7 8 8 9 7 5 5 4 3 5 3 3 4 4 2 0 2 4 3 4 6 6 4 3 6 7 8 10 10 11 11 10 9 8 8 7 6 7 3 3 4 4 5 4 3 3 3 3 3 2 2 2 2 3 2 2 1 2 2 2 2 3 3 1
4 2 1 2 4 2 5 5 4 4 4 6 6 5 5 4 6 6 5 4 6 6 8 7 8 7 7 4 5 7 6 4 6 5 3 3 2 3 2 2 4 3 3 4 5 4 5 8 8 10 10 11 11 11 10 8 10 10 7 6 7 10 7 5 5 4 4 4 4 3 3 2 2 2 2 2 3 3 2 1 0 0 1 3 3 2 1
2 2 3 3 2 3 4 6 6 7 5 4 3 5 6 6 6 6 5 5 6 7 7 7 5 5 7 4 6 5 7 2 5 4 0 1 3 3 3 3 4 3 4 3 5 7 8 8 9 10 11 11 12 11 11 11 10 9 8 8 6 5 10 7 4 3 4 3 3 3 3 3 3 4 4 4 2 3 2 2 2 3 1 2 1 1 3
3 3 3 4 5 5 6 6 6 6 6 5 4 5 4 5 5 5 5 6 6 7 7 7 6 5 6 5 5 5 6 4 4 2 4 6 4 3 3 6 2 1 3 5 6 8 8 8 9 9 11 11 12 12 12 12 11 9 9 8 7 8 8 6 3 4 4 3 3 3 3 3 4 6 5 4 6 2 1 3 2 2 4 2 1 0 4
2 2 4 6 6 6 4 5 5 5 5 6 5 6 5 6 6 6 4 6 7 7 6 6 3 3 5 4 4 5 1 2 3 5 5 5 0 2 5 5 2 2 3 4 6 6 7 8 8 9 10 11 11 12 12 12 12 11 10 9 8 6 8 12 8 3 1 2 1 2 1 2 3 3 5 5 5 5 6 2 2 3 3 2 1 2 3
2 4 4 3 5 6 6 6 6 6 6 6 6 5 5 6 5 5 4 6 7 6 6 4 4 4 3 6 4 4 4 3 5 4 6 2 2 4 3 5 6 5 5 6 6 6 7 7 8 9 9 10 11 11 12 12 11 10 11 10 9 9 10 9 9 8 4 1 1 0 2 1 1 1 3 3 3 2 3 5 3 2 3 2 2 4 2
Wind_Direction
345 344 344 347 349 349 347 342 340 340 341 340 353 308 264 276 0 99 145 163 189 225 257 250 219 240 254 271 280 281 272 267 274 279 279 287 258 242 241 256 283 280 277 290 287 283 267 261 231 235 217 239 223 218 181 185 199 197 189 212 192 208 218 198 184 197 191 203 185 205 206 198 207 214 219 203 204 210 218 217 201 213 222 216 203 212 196
346 345 345 347 348 348 347 341 339 337 347 342 321 295 317 320 252 166 151 167 192 223 268 310 299 283 290 304 300 296 280 275 281 267 272 252 184 214 246 269 237 265 279 283 279 274 281 305 258 213 228 230 195 211 178 183 195 198 181 211 165 199 214 207 174 188 189 198 186 194 206 205 211 207 218 224 215 210 215 219 211 223 215 225 221 202 172
345 344 346 347 348 347 347 342 336 333 338 341 326 313 320 291 279 210 151 176 190 221 249 289 298 306 305 308 304 307 305 293 280 288 291 280 221 167 233 241 276 271 281 280 276 271 266 271 271 278 259 203 202 181 184 183 195 205 193 226 157 217 171 190 184 185 182 188 188 192 192 200 199 209 211 223 226 210 203 217 208 227 213 228 229 215 165
344 344 346 347 348 347 347 344 335 331 337 341 330 314 282 304 328 133 155 195 200 240 255 261 257 283 301 307 303 321 322 327 326 315 303 299 158 176 179 230 248 270 280 278 269 276 253 248 335 258 209 183 171 166 183 186 195 194 212 225 201 225 227 203 206 198 190 194 190 185 192 191 200 198 213 213 229 210 207 217 222 214 214 221 219 218 170
344 344 347 348 349 348 347 345 337 332 331 336 327 301 256 295 282 352 320 208 210 246 242 246 239 280 310 292 318 314 320 323 318 348 301 297 234 200 180 194 131 254 252 264 295 272 269 268 202 234 277 138 154 168 178 182 193 180 198 241 226 222 234 213 197 229 236 197 189 183 200 202 203 203 209 211 209 219 213 211 217 215 213 219 210 215 206
343 342 346 349 351 349 348 347 341 333 327 329 315 293 305 304 35 317 59 286 310 319 205 279 298 299 286 267 270 279 308 312 327 321 308 301 339 114 184 193 209 205 201 322 304 294 278 257 283 169 227 164 148 166 177 185 173 171 208 212 238 249 252 213 207 221 266 262 215 191 194 207 202 211 206 205 205 213 225 218 219 222 223 221 203 220 232
342 341 347 348 351 350 348 350 346 335 326 325 297 336 353 340 329 278 68 282 284 303 316 311 300 292 279 278 262 260 294 321 326 325 319 322 335 145 282 220 206 225 190 227 266 312 298 331 50 107 246 168 151 167 172 191 175 193 205 201 201 202 246 236 216 221 231 241 238 199 197 202 206 210 215 207 209 213 218 227 224 220 219 230 224 209 219
339 341 348 350 352 351 349 351 354 336 330 313 9 39 343 8 349 337 343 303 282 271 270 279 287 292 288 286 346 318 325 311 326 327 328 320 336 61 271 321 324 196 188 194 236 237 268 308 289 335 300 176 183 160 186 173 187 194 203 199 194 241 160 146 239 232 226 240 253 220 199 201 210 207 212 214 215 217 216 219 225 226 232 225 227 249 228
336 339 346 350 353 351 348 351 356 339 331 3 356 55 24 348 289 305 315 309 289 281 281 297 308 311 317 328 339 325 324 329 329 322 325 320 335 332 330 312 311 28 172 196 219 238 255 254 242 250 257 225 167 173 183 188 184 195 197 208 191 208 309 312 277 243 219 230 239 227 218 223 219 212 207 208 209 214 211 216 214 221 223 220 225 227 237
335 337 340 348 351 351 348 349 355 342 324 3 353 13 26 347 346 331 302 288 294 293 284 287 289 307 353 337 324 321 320 317 332 324 332 327 322 326 326 326 325 320 174 201 221 225 227 237 252 266 263 260 287 242 184 193 196 181 202 201 209 189 191 215 205 223 224 213 217 240 244 236 228 220 210 205 208 215 212 214 212 219 222 220 223 231 234
334 336 334 343 347 350 346 346 354 345 337 17 353 354 1 358 340 327 306 293 293 294 323 306 294 349 333 323 320 318 314 322 328 326 322 325 327 331 327 325 334 322 327 347 334 0 292 258 242 242 230 234 218 235 246 203 197 196 196 196 215 196 229 263 273 227 235 233 216 202 224 222 221 210 222 217 216 207 215 211 211 211 210 226 226 232 228
336 335 332 336 344 345 346 341 347 353 331 352 342 331 359 346 335 312 323 313 300 313 308 319 328 327 315 320 315 311 314 318 314 325 320 321 317 323 327 328 338 313 343 315 308 350 269 251 256 228 223 211 208 199 198 214 215 193 206 203 215 217 209 215 249 254 226 227 260 212 215 225 217 217 211 217 221 215 215 224 217 213 213 223 235 237 234
335 335 332 333 341 342 344 338 338 348 329 332 333 330 341 340 320 321 316 301 290 312 320 317 314 291 310 326 318 312 313 305 317 324 312 324 325 327 336 334 333 330 320 326 324 344 316 296 221 216 181 190 197 195 201 197 215 195 204 203 208 212 223 235 252 289 311 265 229 221 228 153 295 208 235 205 212 220 214 218 217 211 215 214 222 226 228
332 335 330 331 336 338 342 336 330 335 328 313 331 334 329 337 336 328 329 314 297 299 312 301 299 340 337 320 316 310 312 322 331 319 330 331 314 339 343 339 339 323 313 340 316 31 304 300 174 189 158 180 176 198 195 192 199 202 195 197 222 234 266 293 313 106 253 282 267 243 80 180 203 195 214 205 208 202 210 216 211 214 215 219 223 222 231
328 328 328 326 333 336 336 335 324 325 322 301 318 308 313 325 340 324 326 304 299 301 281 302 346 326 320 312 313 317 317 335 331 333 327 322 341 352 334 346 337 329 314 309 318 68 266 244 172 162 149 164 174 183 182 187 193 205 197 202 195 214 248 100 221 268 272 271 276 222 201 228 171 45 27 276 336 310 213 215 227 211 218 217 220 226 226
322 325 325 322 326 334 333 332 325 321 322 297 303 315 316 337 313 305 296 294 302 298 6 358 326 320 314 307 309 312 331 330 331 321 323 332 340 337 351 345 339 326 314 304 317 7 262 235 178 157 171 160 165 166 180 174 182 192 204 224 226 239 249 270 273 270 287 277 263 239 235 115 332 78 217 233 311 268 226 212 233 202 218 215 219 224 224
319 323 324 322 322 328 328 325 327 325 324 311 316 318 306 331 292 318 314 301 264 262 289 300 304 303 300 309 340 332 346 322 323 329 321 329 334 345 340 342 341 344 350 328 301 204 273 248 270 167 141 158 161 161 143 171 178 184 196 230 236 263 286 292 252 261 259 296 295 292 341 46 359 319 141 182 155 188 200 216 222 189 211 212 217 220 225
317 322 322 320 321 324 322 319 320 326 319 307 294 304 301 296 256 282 299 288 292 286 280 291 329 318 309 330 308 314 308 299 305 311 301 311 331 355 333 347 348 343 348 335 344 318 348 330 57 309 152 158 150 155 190 167 186 195 199 208 209 182 299 268 273 267 276 254 259 97 248 246 349 302 299 153 171 178 199 209 25 345 344 268 213 221 219
317 320 321 317 318 320 317 314 316 322 327 316 302 295 288 242 242 253 283 287 285 280 290 305 300 287 286 286 280 287 285 291 296 297 307 314 8 345 318 62 341 346 342 351 334 358 0 341 82 315 273 141 171 190 158 191 189 190 201 205 201 175 181 244 250 275 268 303 293 284 273 337 338 308 196 141 161 181 190 47 284 313 301 308 292 215 206
315 320 317 316 316 314 315 313 315 320 322 321 309 298 303 290 252 234 274 290 294 286 293 293 285 282 299 300 300 298 306 300 288 292 306 318 346 337 317 48 8 355 347 0 4 0 348 359 352 11 280 312 341 289 192 208 201 194 203 202 222 187 238 222 241 274 270 253 266 188 174 78 357 314 159 43 292 60 353 308 343 346 322 282 44 40 56
313 317 316 311 313 311 312 317 316 316 317 313 309 303 301 296 250 236 241 264 288 296 293 278 310 306 300 290 284 284 282 278 292 300 313 309 321 315 346 358 335 350 345 344 343 352 356 332 348 342 311 302 250 232 204 202 206 198 209 197 191 146 220 259 228 216 293 333 267 7 311 314 333 319 67 50 25 15 13 334 26 358 355 338 82 54 56
310 314 310 307 308 311 310 313 315 314 315 312 305 292 287 303 285 259 255 248 262 260 272 292 292 283 280 274 269 265 264 265 272 278 285 296 303 305 297 292 303 304 330 328 343 337 352 343 313 337 326 345 297 230 327 284 202 129 139 179 200 192 214 143 259 156 242 310 350 148 6 4 312 293 89 90 41 31 4 58 57 35 45 35 37 67 76
308 307 304 303 309 309 311 310 312 314 311 310 299 290 292 300 297 299 272 266 264 271 281 280 275 273 269 264 255 250 246 247 257 260 259 275 293 282 285 301 331 338 301 323 352 319 321 320 310 317 315 355 326 296 193 173 277 188 190 161 55 156 177 140 241 272 327 284 276 343 310 188 128 285 77 107 174 42 38 44 60 57 59 47 56 54 72
307 306 303 304 308 309 306 308 309 313 313 308 299 295 294 300 301 304 289 275 284 299 297 265 276 280 290 312 286 207 224 236 238 244 247 250 264 286 266 253 326 282 308 52 90 293 311 313 309 318 298 312 306 323 294 207 325 338 311 161 190 160 183 212 241 227 256 232 352 41 313 297 186 210 158 171 128 135 77 65 55 62 54 59 52 54 63
304 303 304 304 305 305 303 305 308 307 312 310 302 286 284 279 274 279 290 302 304 312 301 303 289 269 273 282 288 273 256 243 221 220 226 224 237 257 287 16 327 321 313 321 292 286 284 304 309 311 312 326 287 308 18 54 285 153 281 175 181 181 186 233 229 247 234 265 91 44 344 311 312 293 247 129 52 93 98 66 87 79 76 63 53 52 52
300 301 304 304 304 303 303 304 306 307 302 299 297 295 290 286 294 290 280 268 274 279 284 291 287 299 299 301 296 299 293 281 251 217 217 223 228 242 267 293 293 291 289 280 263 268 292 287 284 293 299 307 282 315 321 214 292 288 294 287 51 37 216 230 207 233 234 258 231 177 188 253 310 302 319 336 340 312 52 85 83 89 82 79 73 59 56
298 300 302 302 302 300 298 300 302 304 303 294 297 294 289 290 285 278 274 286 303 283 238 261 295 304 328 313 303 284 253 241 242 241 229 222 230 234 243 258 270 279 273 271 252 261 263 259 260 275 284 290 306 299 289 286 324 294 268 268 162 222 225 241 223 237 240 260 66 84 278 245 191 162 80 29 356 323 318 36 62 70 77 80 84 80 72
301 303 303 300 298 296 295 294 293 299 303 303 290 289 285 281 273 254 249 245 235 267 301 301 301 301 310 281 277 285 283 255 237 232 235 235 229 231 240 245 254 262 264 267 270 242 244 262 280 270 237 272 298 309 20 356 304 270 219 317 306 205 269 8 278 272 323 9 42 272 312 355 344 4 56 56 38 14 329 36 51 52 53 74 86 92 85
300 301 298 294 291 294 298 299 301 295 298 297 298 291 282 248 240 258 288 263 256 268 278 285 287 280 290 342 324 292 262 259 258 252 249 247 240 231 230 238 242 249 257 265 270 283 279 277 281 288 303 356 324 288 327 270 277 279 61 222 265 103 235 239 274 288 301 284 15 336 289 331 45 355 26 35 20 37 17 321 333 62 61 58 69 73 90
298 299 297 296 297 298 304 307 310 307 303 302 303 295 295 149 94 184 105 259 226 252 283 305 306 288 324 311 298 309 296 281 268 262 256 249 245 239 235 228 233 238 249 254 263 265 274 283 285 280 282 297 276 310 281 317 317 302 331 260 273 67 131 310 295 278 272 295 346 355 31 22 43 49 37 29 4 359 339 355 348 28 42 47 54 75 78
298 297 298 298 298 300 302 306 305 306 304 280 279 293 291 269 110 92 140 227 204 266 285 275 278 300 290 268 268 287 303 294 283 274 265 259 249 240 233 231 229 225 238 240 244 256 277 271 281 289 279 219 319 287 299 292 308 200 280 282 258 218 178 8 291 290 315 316 39 80 94 356 313 260 75 62 50 20 350 323 330 17 310 95 79 81 74
300 298 297 297 296 297 298 298 300 294 281 271 247 268 328 2 60 99 99 282 297 268 269 297 299 291 308 297 304 315 298 307 285 263 243 226 248 233 232 221 231 215 232 256 263 268 256 270 271 278 279 126 155 290 283 280 281 320 296 279 279 20 109 199 267 312 6 17 84 121 137 153 238 263 44 73 81 189 170 205 269 290 315 67 80 61 61
299 300 299 298 297 295 296 295 295 293 269 287 321 313 152 143 51 332 209 321 274 258 272 283 284 300 283 315 316 294 341 310 276 238 268 176 247 197 239 213 230 235 190 233 240 255 252 251 257 264 259 128 261 270 278 280 302 8 266 274 288 16 3 66 236 210 350 17 21 106 173 137 105 69 60 48 35 323 310 312 178 285 312 360 49 68 93
302 302 303 301 299 298 296 297 300 286 256 258 232 223 213 155 168 181 288 267 261 267 275 279 283 295 296 297 285 77 12 334 303 299 292 158 249 247 243 197 214 240 193 222 238 250 257 266 262 274 280 234 242 262 275 288 299 301 303 288 309 309 162 170 124 245 9 14 44 111 150 164 6 17 345 57 45 297 288 283 287 330 337 36 66 56 51
306 303 303 300 295 298 297 284 247 217 242 246 251 93 90 48 5 136 198 230 281 237 230 224 227 297 312 322 314 21 4 321 310 351 305 286 263 268 266 256 172 238 207 210 253 263 281 258 268 267 267 278 229 266 278 284 287 262 235 268 339 342 299 271 214 13 44 348 92 112 148 161 163 183 201 212 227 254 264 271 336 322 297 37 23 32 30
303 301 296 296 295 287 274 223 225 236 228 225 117 101 56 354 250 224 228 243 255 292 287 286 284 287 306 311 323 340 329 302 323 312 294 302 264 219 251 278 263 227 219 181 257 241 244 208 257 265 270 250 253 254 273 277 283 303 316 304 330 331 333 323 322 179 204 117 52 113 136 141 138 162 249 224 212 215 233 306 19 5 15 24 23 22 23
296 293 296 290 271 223 233 238 205 258 21 57 23 324 305 253 232 242 233 233 226 226 265 289 280 269 286 308 304 279 335 313 341 316 319 284 298 348 293 247 252 233 210 238 239 249 247 141 269 278 277 278 281 272 269 292 314 317 312 309 308 309 304 295 323 243 220 182 112 134 134 115 80 242 217 199 162 202 183 136 69 42 39 22 14 12 25
293 297 293 287 267 262 244 225 90 42 296 242 236 246 179 185 234 200 211 229 213 206 226 236 256 273 281 277 284 318 305 315 339 317 293 337 319 264 225 249 265 279 263 269 246 220 204 212 248 261 264 263 273 282 322 343 321 314 305 310 310 300 293 255 203 206 172 174 170 155 145 129 106 292 305 67 227 184 87 57 52 51 49 49 30 5 357
292 273 257 281 276 284 331 53 128 183 268 282 243 250 222 181 222 225 214 194 193 224 213 234 255 257 265 276 291 316 323 315 302 305 298 16 338 302 307 283 239 246 260 260 203 167 254 231 236 246 256 247 234 72 29 360 314 318 334 329 312 297 272 196 229 202 216 10 54 55 8 41 144 231 211 194 203 30 322 285 15 58 53 49 37 18 19
254 304 323 290 272 338 340 134 144 216 234 245 203 231 256 189 209 254 151 209 219 209 193 235 225 251 265 295 313 305 320 304 312 317 317 310 236 277 319 315 293 278 271 267 267 133 268 276 246 236 257 32 73 30 6 340 317 7 355 345 315 284 237 158 46 358 357 76 46 35 20 3 1 321 311 318 331 209 217 240 83 59 48 57 28 11 23
324 312 291 298 332 327 310 313 292 261 241 222 216 216 251 256 222 250 274 263 274 154 176 279 275 274 197 227 276 290 334 269 270 294 290 281 328 296 274 267 312 291 272 267 76 277 258 249 263 269 288 63 59 51 353 3 358 334 23 359 357 251 182 139 157 184 175 159 167 332 279 252 243 253 258 266 281 284 276 276 152 81 66 80 62 40 20
345 309 308 301 289 280 283 252 226 234 239 229 224 242 226 242 254 243 231 270 278 317 233 211 283 316 316 325 307 309 290 322 305 285 284 285 263 268 281 280 258 256 266 269 297 259 272 263 251 255 64 71 56 56 31 7 16 339 12 27 342 231 188 194 203 186 201 222 252 260 253 235 249 243 230 231 238 258 247 201 119 99 79 72 63 57 56
291 261 240 289 284 274 249 255 192 210 216 220 229 271 221 238 228 254 252 223 133 248 316 291 288 308 278 275 279 245 288 333 302 277 265 273 316 283 277 272 264 250 256 300 263 258 251 252 253 67 9 32 8 39 17 17 344 360 9 12 13 243 223 196 211 227 228 214 219 238 249 227 239 252 273 265 276 303 294 117 122 124 115 97 76 86 86
269 277 242 273 276 253 198 258 176 169 241 204 201 230 208 236 263 195 232 331 50 268 10 326 324 321 308 328 304 311 295 242 205 277 260 281 288 292 276 259 250 284 316 261 259 247 251 252 23 31 22 8 355 6 359 3 347 343 350 9 343 202 225 224 232 246 251 239 235 241 252 216 185 189 186 217 241 224 210 164 140 129 123 123 119 110 106
290 268 243 257 249 228 134 285 191 169 230 233 219 257 274 270 285 284 341 54 280 292 313 300 305 306 296 304 299 276 259 297 170 256 291 298 282 275 265 280 324 320 289 276 261 255 246 201 51 2 12 353 358 351 354 343 357 336 345 319 340 263 192 216 199 211 197 211 194 191 195 153 185 210 234 238 239 234 194 182 166 162 164 158 123 95 74
288 289 281 254 260 246 206 261 211 249 255 239 253 264 281 295 320 299 347 346 309 299 293 308 305 296 289 298 290 299 289 284 289 267 274 276 292 278 295 317 284 277 278 259 269 264 309 35 13 18 1 358 343 348 340 341 339 335 304 310 289 256 277 252 214 206 209 217 213 224 195 186 187 204 205 226 234 198 168 154 175 195 188 161 142 119 109
257 234 248 275 275 265 226 245 243 257 314 291 285 300 291 297 314 304 300 302 296 308 306 300 294 296 297 296 286 275 262 252 258 272 284 268 253 267 303 312 269 243 253 268 264 297 2 30 7 11 1 349 348 342 342 350 354 344 339 329 298 285 257 274 259 254 227 211 200 152 153 121 113 119 108 114 87 79 87 170 173 199 208 154 155 143 104
271 274 245 247 246 231 221 238 254 276 265 262 277 286 302 296 282 279 298 321 312 303 296 304 296 302 283 268 252 265 275 280 280 270 251 274 281 286 283 257 255 256 278 318 343 15 349 10 4 2 359 358 347 346 344 348 354 347 339 345 336 316 296 245 238 202 183 177 150 141 117 167 145 130 130 110 128 130 98 79 240 112 123 139 161 157 264
301 297 257 254 267 285 283 294 297 285 285 271 274 281 280 280 288 298 311 314 301 297 304 299 299 302 282 295 283 278 268 258 262 266 259 255 256 233 236 239 263 291 47 18 339 350 7 2 4 355 358 357 2 349 348 347 349 348 343 337 326 314 299 288 206 174 184 167 146 148 124 107 122 109 117 122 105 89 100 107 136 135 128 173 133 106 279
234 241 236 241 260 260 231 252 269 274 271 260 258 266 287 289 293 301 350 317 311 304 297 283 266 264 290 299 284 287 281 271 257 249 246 256 251 263 259 274 287 321 356 356 344 343 354 353 356 357 356 358 358 352 351 342 342 348 353 344 345 328 293 273 220 183 211 165 175 109 118 173 163 175 153 89 91 129 145 142 143 124 138 138 174 261 40
220 254 264 272 276 289 317 286 289 291 288 286 293 297 307 295 303 302 352 316 302 297 288 281 293 278 277 281 288 272 272 355 293 271 268 275 262 224 258 282 31 13 331 314 305 317 337 355 1 355 352 358 355 356 355 347 344 358 355 8 10 20 351 332 307 216 217 332 79 159 185 73 59 50 105 144 141 105 88 49 123 158 153 142 231 120 97
243 242 248 241 244 261 271 288 289 284 292 299 297 302 308 292 304 310 333 305 298 291 291 313 309 293 280 262 271 292 302 281 268 275 274 278 41 318 2 7 2 360 343 321 320 334 347 2 5 355 352 356 353 358 358 354 352 356 1 7 18 23 18 24 12 352 352 25 317 270 65 39 85 70 76 77 108 121 119 107 81 101 148 183 178 137 117